Weather History for Poplar Bluff, MO

Change the Weather History Date:

Wednesday, November 16, 2011

  Actual Average Record
Temperature  
Mean Temperature 52 °F -  
Max Temperature 59 °F 58 °F 77 °F (1941)
Min Temperature 44 °F 34 °F 12 °F (1940)
Degree Days  
Heating Degree Days 13    
Growing Degree Days 2 (Base 50)    
Moisture  
Dew Point 37 °F    
Average Humidity 61    
Maximum Humidity 100    
Minimum Humidity 30    
Precipitation  
Precipitation 0.58 in - - ()
Sea Level Pressure  
Sea Level Pressure 29.99 in    
Wind  
Wind Speed 8 mph (North)    
Max Wind Speed 21 mph    
Max Gust Speed 28 mph    
Visibility 9 miles    
Events Rain    
Averages and records for this station are not official NWS values.
T = Trace of Precipitation, MM = Missing Value Source: NWS Daily Summary

Daily Weather History Graph

Daily Weather History Graph

Search for Another Location

Airport:

Trip Planner

Search our weather history database for the weather conditions in past years. The results will help you decide how hot, cold, wet, or windy it might be!

Date:

Astronomy

Nov. 16, 2011 Rise Set
Actual Time 6:40 AM CST 4:51 PM CST
Civil Twilight 6:12 AM CST 5:19 PM CST
Nautical Twilight 5:41 AM CST 5:50 PM CST
Astronomical Twilight 5:10 AM CST 6:21 PM CST
Moon 10:04 PM CST (11/16) 11:16 AM CST (11/16)
Length of Visible Light 11h 06m
Length of Day
10h 11m
Waning Gibbous, 70% of the Moon is Illuminated
Nov 16
Waning Gibbous
Nov 18
Last Quarter
Nov 25
New
Dec 2
First Quarter
Dec 10
Full

Hourly Weather History & Observations

Time (CST) Temp. Windchill Dew Point Humidity Pressure Visibility Wind Dir Wind Speed Gust Speed Precip Events Conditions
12:07 AM 59.0 °F - 57.2 °F 94% 29.83 in 2.5 mi NW 3.5 mph - 0.07 in Rain Heavy Rain
12:28 AM 57.2 °F - 57.2 °F 100% 29.82 in 3.0 mi North 8.1 mph - 0.19 in Rain Heavy Rain
12:49 AM 57.2 °F - 57.2 °F 100% 29.83 in 2.5 mi Calm Calm - 0.33 in Rain Rain
12:53 AM 57.9 °F - 57.9 °F 100% 29.83 in 3.0 mi ENE 3.5 mph - 0.35 in Rain Rain
1:09 AM 57.2 °F - 57.2 °F 100% 29.82 in 4.0 mi North 4.6 mph - 0.04 in Rain Rain
1:34 AM 57.2 °F - 57.2 °F 100% 29.81 in 10.0 mi North 4.6 mph - 0.06 in Rain Light Rain
1:41 AM 57.2 °F - 57.2 °F 100% 29.81 in 10.0 mi North 5.8 mph - 0.06 in Rain Light Rain
1:53 AM 57.9 °F - 57.0 °F 97% 29.81 in 10.0 mi North 5.8 mph - 0.06 in Rain Light Rain
2:53 AM 57.0 °F - 53.1 °F 87% 29.82 in 6.0 mi North 9.2 mph 20.7 mph 0.07 in Rain Rain
3:53 AM 55.9 °F - 53.1 °F 90% 29.82 in 8.0 mi NNE 8.1 mph - 0.08 in Rain Light Rain
4:53 AM 52.0 °F - 43.0 °F 71% 29.85 in 10.0 mi North 16.1 mph 20.7 mph 0.02 in   Mostly Cloudy
5:53 AM 51.1 °F - 37.0 °F 59% 29.90 in 10.0 mi North 11.5 mph 21.9 mph N/A   Partly Cloudy
6:53 AM 50.0 °F - 34.0 °F 54% 29.94 in 10.0 mi North 18.4 mph 25.3 mph N/A   Clear
7:53 AM 50.0 °F - 30.9 °F 48% 29.96 in 10.0 mi North 15.0 mph 26.5 mph N/A   Scattered Clouds
8:53 AM 48.9 °F - 30.9 °F 50% 29.97 in 10.0 mi North 13.8 mph 24.2 mph N/A   Clear
9:53 AM 50.0 °F - 26.1 °F 39% 29.99 in 10.0 mi North 20.7 mph 26.5 mph N/A   Clear
10:53 AM 51.1 °F - 24.1 °F 35% 30.01 in 10.0 mi NNE 17.3 mph 27.6 mph N/A   Clear
11:53 AM 54.0 °F - 26.1 °F 34% 30.01 in 10.0 mi NNE 13.8 mph - N/A   Clear
12:53 PM 55.0 °F - 25.0 °F 31% 30.02 in 10.0 mi NNE 13.8 mph - N/A   Clear
1:53 PM 54.0 °F - 25.0 °F 33% 30.04 in 10.0 mi North 17.3 mph 26.5 mph N/A   Clear
2:53 PM 54.0 °F - 23.0 °F 30% 30.07 in 10.0 mi North - - N/A   Clear
3:53 PM 52.0 °F - 25.0 °F 35% 30.09 in 10.0 mi NNE 11.5 mph 18.4 mph N/A   Clear
4:53 PM 50.0 °F - 24.1 °F 36% 30.10 in 10.0 mi North 11.5 mph - N/A   Clear
5:53 PM 48.9 °F - 23.0 °F 36% 30.15 in 10.0 mi North 11.5 mph 21.9 mph N/A   Clear
6:53 PM 46.9 °F - 24.1 °F 41% 30.20 in 10.0 mi North 11.5 mph 20.7 mph N/A   Clear
7:53 PM 46.0 °F 39.9 °F 23.0 °F 40% 30.22 in 10.0 mi North 13.8 mph 23.0 mph N/A   Clear
8:53 PM 45.0 °F 40.1 °F 24.1 °F 44% 30.24 in 10.0 mi North 9.2 mph - N/A   Clear
9:53 PM 45.0 °F 38.9 °F 24.1 °F 44% 30.25 in 10.0 mi North 12.7 mph 18.4 mph N/A   Mostly Cloudy
10:53 PM 45.0 °F 41.2 °F 23.0 °F 42% 30.25 in 10.0 mi North 6.9 mph - N/A   Overcast
11:53 PM 44.1 °F 41.5 °F 26.1 °F 49% 30.27 in 10.0 mi NW 4.6 mph - N/A   Overcast